Oakland, CA

9:30 AM PDT on August 25, 2016 (GMT -0700)
Metro Oakland International

Weather History for KOAK - February, 2014

Change the Weather History Date:

Tuesday, February 25, 2014

  Actual Average Record
Temperature  
Mean Temperature 57 °F 53 °F  
Max Temperature 65 °F 61 °F 77 °F (1954)
Min Temperature 48 °F 45 °F 33 °F (1953)
Degree Days  
Heating Degree Days 8 12  
Month to date heating degree days 290 326  
Since 1 July heating degree days 1804 1985  
Cooling Degree Days 0 0  
Month to date cooling degree days 0 0  
Year to date cooling degree days 0 0  
Growing Degree Days 6 (Base 50)    
Moisture  
Dew Point 47 °F    
Average Humidity 73    
Maximum Humidity 93    
Minimum Humidity 52    
Precipitation  
Precipitation 0.00 in 0.15 in 0.74 in (1969)
Month to date precipitation 2.25 3.49  
Year to date precipitation 2.29 7.48  
Since 1 July precipitation 4.36  
Sea Level Pressure  
Sea Level Pressure 29.95 in    
Wind  
Wind Speed 5 mph (NW)    
Max Wind Speed 16 mph    
Max Gust Speed 24 mph    
Visibility 8 miles    
Events      
T = Trace of Precipitation, MM = Missing Value Source: NWS Daily Summary

Daily Weather History Graph

Daily Weather History Graph

Search for Another Location

Airport or City:

Trip Planner

Search our weather history database for the weather conditions in past years. The results will help you decide how hot, cold, wet, or windy it might be!

Date:

Astronomy

Feb. 25, 2014 Rise Set
Actual Time 6:45 AM PST 5:58 PM PST
Civil Twilight 6:19 AM PST 6:25 PM PST
Nautical Twilight 5:48 AM PST 6:55 PM PST
Astronomical Twilight 5:18 AM PST 7:25 PM PST
Moon 3:42 AM PST 2:13 PM PST
Length of Visible Light 12h 05m
Length of Day
11h 12m
Waning Crescent, 17% of the Moon is Illuminated
Feb 25
Waning Crescent
Mar 1
New
Mar 8
First Quarter
Mar 16
Full
Mar 23
Last Quarter

Hourly Weather History & Observations

Time (PST) Temp. Dew Point Humidity Pressure Visibility Wind Dir Wind Speed Gust Speed Precip Events Conditions
12:53 AM 52.0 °F 48.0 °F 86% 29.98 in 10.0 mi NNW 4.6 mph - N/A   Partly Cloudy
1:53 AM 50.0 °F 46.0 °F 86% 29.97 in 9.0 mi North 4.6 mph - N/A   Partly Cloudy
2:53 AM 50.0 °F 46.9 °F 89% 29.95 in 8.0 mi Calm Calm - N/A   Partly Cloudy
3:53 AM 48.9 °F 46.0 °F 90% 29.95 in 8.0 mi North 3.5 mph - N/A   Partly Cloudy
4:20 AM 48.2 °F 46.4 °F 93% 29.95 in 8.0 mi North 3.5 mph - N/A   Partly Cloudy
4:35 AM 48.2 °F 46.4 °F 93% 29.95 in 8.0 mi North 3.5 mph - N/A   Mostly Cloudy
4:53 AM 50.0 °F 46.9 °F 89% 29.96 in 8.0 mi Calm Calm - N/A   Overcast
5:53 AM 52.0 °F 48.0 °F 86% 29.96 in 9.0 mi NW 3.5 mph - N/A   Overcast
6:53 AM 52.0 °F 48.0 °F 86% 29.97 in 5.0 mi NNW 4.6 mph - N/A   Overcast
7:53 AM 53.1 °F 48.0 °F 83% 29.98 in 4.0 mi Calm Calm - N/A   Haze
8:53 AM 54.0 °F 48.0 °F 80% 29.99 in 4.0 mi Calm Calm - N/A   Haze
9:53 AM 55.0 °F 46.9 °F 74% 29.99 in 6.0 mi Calm Calm - N/A   Haze
10:53 AM 57.0 °F 48.0 °F 72% 29.99 in 8.0 mi WSW 5.8 mph - N/A   Mostly Cloudy
11:53 AM 57.9 °F 48.0 °F 70% 29.98 in 9.0 mi West 6.9 mph - N/A   Scattered Clouds
12:53 PM 60.1 °F 48.0 °F 64% 29.95 in 8.0 mi NW 9.2 mph - N/A   Mostly Cloudy
1:53 PM 62.1 °F 48.0 °F 60% 29.94 in 10.0 mi NW 9.2 mph - N/A   Mostly Cloudy
2:53 PM 64.0 °F 46.9 °F 54% 29.92 in 10.0 mi NW 10.4 mph - N/A   Mostly Cloudy
3:53 PM 62.1 °F 46.9 °F 58% 29.93 in 10.0 mi NW 10.4 mph - N/A   Mostly Cloudy
4:53 PM 57.9 °F 46.9 °F 67% 29.93 in 10.0 mi WSW 15.0 mph - N/A   Mostly Cloudy
5:53 PM 57.0 °F 46.0 °F 67% 29.93 in 10.0 mi West 5.8 mph - N/A   Mostly Cloudy
6:53 PM 54.0 °F 46.0 °F 75% 29.93 in 10.0 mi North 3.5 mph - N/A   Mostly Cloudy
7:53 PM 54.0 °F 46.0 °F 75% 29.94 in 10.0 mi North 3.5 mph - N/A   Mostly Cloudy
8:53 PM 53.1 °F 46.0 °F 77% 29.94 in 10.0 mi Calm Calm - N/A   Mostly Cloudy
9:53 PM 53.1 °F 46.9 °F 80% 29.94 in 10.0 mi Calm Calm - N/A   Mostly Cloudy
10:53 PM 53.1 °F 46.0 °F 77% 29.93 in 10.0 mi Calm Calm - N/A   Mostly Cloudy
11:53 PM 55.9 °F 46.9 °F 72% 29.97 in 10.0 mi WSW 6.9 mph - N/A   Mostly Cloudy